RH
57 88 95 71 50 32 16 17 18 18 17 16 14 16 20 21 21 22 22 23 22 22 21 21 20 20 21 21 22 22 22 20 18 18 21 23 24 24 24 22 20 19 19
46 86 95 89 72 48 18 16 18 18 17 16 15 14 15 19 21 21 22 22 22 22 22 21 22 23 23 24 24 25 24 24 23 20 20 23 24 25 25 24 23 22 22
33 74 73 79 83 58 30 16 17 18 18 17 16 14 14 13 14 16 16 18 18 18 18 19 20 22 23 24 25 25 26 26 26 25 22 22 24 25 26 26 26 24 23
35 29 45 65 82 64 45 18 17 18 18 18 17 15 14 14 13 13 13 13 13 13 14 15 16 16 17 18 20 22 24 25 26 26 26 23 23 24 26 27 27 27 26
36 27 20 47 74 74 51 26 18 18 18 18 17 16 14 14 14 13 13 13 13 13 13 13 13 13 14 14 15 17 19 22 24 26 27 26 23 23 25 27 28 28 28
33 24 14 18 55 74 64 47 20 18 18 18 17 16 15 14 13 13 13 12 12 12 12 12 12 12 13 13 13 15 17 18 21 24 27 27 26 24 23 25 27 28 29
30 22 15 14 16 56 61 52 38 18 18 18 17 16 16 15 14 13 13 12 12 12 12 12 12 12 12 12 13 14 15 17 19 22 24 24 25 24 23 23 25 27 29
29 21 16 19 19 15 36 38 48 26 19 18 18 17 16 16 14 13 13 12 12 11 11 12 12 11 11 12 12 13 15 16 18 18 19 20 21 21 21 22 24 26 27
32 25 18 18 24 16 17 31 47 41 22 19 19 18 17 16 15 14 13 12 12 12 12 12 12 12 12 12 13 13 14 14 15 16 17 18 17 17 18 19 21 22 24
45 30 23 19 19 27 32 38 44 42 29 22 20 18 17 16 15 14 14 13 12 12 12 12 12 13 13 14 14 14 15 16 17 17 18 18 19 19 19 19 19 21 23
53 42 29 23 21 19 20 23 26 26 23 20 18 17 16 16 15 13 14 14 13 13 13 14 14 16 16 16 16 17 18 18 18 19 19 20 21 22 22 22 22 23 24
55 50 37 30 23 19 18 18 18 18 18 18 17 17 16 15 15 14 14 15 15 16 16 18 19 20 20 20 19 22 25 28 29 30 31 31 30 30 30 32 32 33 33
56 53 46 37 30 25 21 19 16 16 16 16 15 15 15 15 15 15 16 18 19 21 23 25 27 27 30 33 31 34 39 43 48 54 60 66 67 67 70 70 64 60 68
56 57 58 46 39 33 28 24 21 19 18 17 17 18 18 19 20 22 24 25 23 24 26 35 44 44 48 49 56 64 72 75 81 84 84 84 87 86 86 78 82 77 74
59 57 62 51 46 42 37 33 30 30 28 27 28 28 27 29 29 31 35 36 34 27 28 34 38 74 83 86 88 91 86 84 83 88 92 95 93 90 89 85 91 100 91
96 62 68 58 54 53 50 51 51 53 53 51 48 42 39 41 42 44 43 46 51 52 50 61 62 62 67 70 79 86 91 92 86 87 88 93 89 86 95 80 80 81 87
99 98 100 85 63 64 68 68 66 70 70 68 64 62 60 58 58 57 58 65 70 72 73 70 83 83 86 91 85 87 87 97 96 90 96 92 91 85 84 87 89 90 98
97 99 99 96 82 72 69 70 73 76 77 72 63 60 54 62 79 82 80 82 90 90 95 84 74 90 85 79 82 78 82 87 90 83 82 90 76 79 76 72 83 92 96
91 93 94 82 68 72 75 75 82 86 88 81 76 69 73 86 97 98 96 99 99 92 93 97 98 97 85 81 63 71 64 81 71 65 56 86 74 69 83 66 60 83 82
87 90 89 79 78 73 74 77 86 94 97 90 90 91 94 95 98 100 94 97 99 100 100 98 90 85 81 83 94 66 65 87 79 46 47 52 55 52 48 40 42 45 50
93 99 100 97 85 79 82 89 96 100 99 99 97 99 99 99 99 99 99 100 84 78 72 77 86 82 77 98 87 86 76 56 46 34 36 40 36 35 39 43 48 52 52
100 100 99 100 100 100 100 99 96 98 100 99 99 100 96 98 96 94 90 91 94 89 80 73 74 91 95 98 98 88 58 31 29 36 34 37 46 49 56 60 62 60 60
96 99 96 99 99 98 88 100 95 83 81 94 94 91 99 95 96 100 87 72 90 88 97 89 98 99 76 88 81 59 39 35 35 41 40 38 50 54 57 60 60 54 45
79 84 96 90 90 82 80 88 88 86 96 98 87 99 97 100 98 98 96 99 99 99 98 98 84 90 87 47 41 40 41 42 47 56 57 51 56 57 54 40 28 20 16
73 76 81 79 91 97 100 100 98 93 98 98 99 100 100 99 86 100 99 99 99 99 87 77 68 57 48 46 48 53 56 59 61 64 63 61 52 43 31 18 13 14 14
84 96 98 93 99 99 100 98 99 100 100 100 100 98 94 100 99 100 98 99 98 76 68 61 54 53 56 59 63 68 67 68 63 55 36 32 20 15 12 12 13 13 12
Wind_Speed
12 16 18 17 15 16 18 19 18 17 15 13 12 11 9 8 6 4 3 2 2 1 1 2 3 3 4 6 7 8 10 10 11 11 12 12 12 13 13 14 13 13 14
15 17 18 18 18 17 18 20 20 19 17 15 14 12 12 10 8 7 6 6 5 5 5 6 7 8 8 9 10 11 12 13 13 14 14 14 14 14 15 15 15 16 17
16 20 20 20 20 19 19 20 20 19 18 16 15 14 13 12 11 10 10 9 9 9 9 9 11 12 12 12 13 15 15 15 15 16 16 16 16 17 17 17 17 18 19
17 19 20 21 22 22 21 21 21 21 20 18 16 14 13 12 11 11 11 11 11 12 12 12 13 14 15 16 17 17 18 18 18 18 19 19 19 19 19 19 19 20 20
18 19 21 22 24 24 23 23 23 22 21 19 17 16 15 13 13 12 13 13 13 14 14 14 16 17 17 18 19 20 20 20 20 21 21 21 21 21 21 22 23 23 23
18 19 21 23 24 26 25 24 24 24 23 21 19 18 17 16 15 15 14 14 15 16 16 17 18 18 19 20 20 21 22 22 22 22 22 22 22 23 24 24 24 25 25
19 18 19 21 24 25 26 26 25 25 23 22 21 19 18 17 16 16 16 17 17 18 18 19 19 19 20 20 21 22 23 23 23 23 23 24 24 24 25 26 27 27 27
17 17 18 19 21 24 25 25 25 24 24 23 21 21 19 18 18 18 18 18 19 20 20 20 20 20 21 21 23 23 23 24 24 25 25 25 26 25 26 26 27 28 29
20 18 18 19 19 21 22 24 25 25 25 25 23 22 20 20 19 20 20 20 21 21 21 21 21 22 23 23 25 25 25 25 25 25 25 26 27 28 28 28 29 30 31
19 18 18 19 20 20 21 22 24 24 25 24 23 22 22 22 22 21 21 22 22 23 23 23 23 24 25 26 26 27 27 27 27 27 27 27 28 29 30 31 32 33 33
22 20 19 19 19 19 21 22 22 23 23 24 24 24 24 23 23 24 22 23 23 24 24 24 25 26 27 28 28 27 27 28 28 28 28 29 30 30 31 32 33 35 36
25 24 22 20 20 21 22 22 23 24 24 25 25 24 25 26 24 25 24 22 23 24 26 26 26 27 27 27 28 27 26 26 26 27 28 29 30 31 32 32 33 35 36
27 26 24 22 22 21 22 23 23 23 24 24 25 25 25 25 25 25 25 26 25 24 24 25 27 27 27 27 27 28 25 25 24 24 24 25 27 28 29 31 32 31 30
30 30 28 25 24 24 24 23 23 23 23 23 23 24 25 25 25 26 26 28 29 28 25 21 17 22 24 25 24 24 22 22 25 28 30 31 31 34 36 37 38 38 39
33 34 32 30 28 26 24 23 22 21 21 22 23 24 24 26 27 27 27 28 29 28 27 18 13 11 12 16 20 25 26 27 30 30 32 32 35 39 41 42 43 44 44
35 37 34 32 29 27 25 23 21 21 21 22 23 24 24 25 25 26 25 25 23 23 27 16 13 15 20 22 26 29 32 34 34 34 37 37 40 42 45 46 45 47 47
36 33 44 34 29 26 24 23 24 23 23 24 25 26 24 25 24 22 23 22 21 22 27 23 24 24 27 31 31 36 32 33 36 38 44 43 42 43 43 44 45 46 47
30 37 40 38 29 25 25 31 28 25 25 26 27 29 25 26 24 24 24 23 25 27 31 33 29 30 31 32 31 35 37 40 39 41 43 42 44 46 48 45 46 47 47
27 25 27 32 32 33 34 32 30 29 28 27 27 29 26 28 27 28 30 32 30 35 32 35 37 37 37 36 41 38 42 41 42 50 48 43 48 48 44 46 44 45 48
30 33 34 36 38 36 36 35 34 34 32 30 30 31 32 35 36 36 35 36 38 29 34 38 41 43 43 43 46 45 47 47 53 50 44 43 43 45 47 47 45 46 47
36 38 38 34 37 38 38 37 35 36 35 36 36 35 39 39 43 33 35 30 32 34 39 39 43 45 48 45 41 48 57 57 49 43 43 42 44 44 45 44 44 45 46
39 39 38 37 38 38 36 37 38 37 37 37 39 45 45 48 30 34 36 35 39 41 37 43 49 49 50 50 54 57 57 46 47 44 47 46 46 45 44 42 44 44 45
37 37 37 38 39 41 40 39 38 38 40 43 43 47 39 34 38 35 37 38 44 49 46 48 47 49 51 54 58 51 47 48 49 50 54 54 49 48 47 45 45 44 43
33 34 36 36 37 39 38 40 41 41 42 44 42 38 42 42 40 42 41 39 42 46 49 48 51 55 56 46 44 45 48 49 50 50 52 53 52 51 49 46 45 44 43
33 34 35 36 37 39 39 39 39 40 40 38 43 43 44 41 41 40 35 41 51 52 55 56 50 43 43 44 45 47 48 49 49 47 48 49 50 50 50 49 47 46 47
37 38 40 39 40 41 39 40 38 42 44 46 51 46 43 45 37 43 48 52 53 50 43 40 41 42 43 44 45 45 45 45 46 47 46 48 48 51 54 51 51 49 48
Wind_Direction
206 192 190 189 186 191 194 191 192 193 191 193 195 195 196 193 186 182 189 207 227 264 302 318 315 316 318 322 326 329 330 332 329 320 317 318 321 323 323 325 325 327 329
199 193 195 197 197 196 199 198 196 196 197 199 201 203 205 208 211 221 232 242 256 271 285 292 298 302 306 312 314 316 318 321 322 319 312 308 310 313 314 315 317 320 318
206 198 201 203 202 201 203 203 203 201 202 206 207 209 214 216 221 228 240 249 258 267 274 280 288 293 299 303 305 308 310 312 313 313 310 305 304 305 306 309 312 313 313
213 210 204 202 200 203 205 205 207 206 207 211 213 217 220 223 229 237 245 252 260 266 272 278 283 288 293 296 298 300 302 304 305 305 306 305 301 299 300 302 304 305 308
218 214 211 204 203 205 207 208 209 211 212 215 217 221 226 231 236 243 250 255 262 268 275 281 284 287 291 293 296 297 298 300 300 300 302 303 300 297 297 299 300 302 306
224 219 213 209 206 206 210 212 213 215 216 218 220 224 229 234 239 246 253 260 265 271 278 281 284 290 293 296 298 297 298 298 298 298 297 297 297 296 295 295 296 299 302
224 222 217 214 212 209 211 214 216 217 219 221 224 228 235 241 246 252 258 262 266 272 277 280 287 291 294 295 296 296 295 294 294 294 293 293 294 293 292 294 296 297 298
219 220 218 219 215 214 214 217 219 221 223 226 229 234 240 247 252 257 260 264 268 273 277 283 287 290 293 294 294 293 292 291 292 293 294 293 292 291 290 291 292 294 296
216 218 217 220 214 211 211 215 219 222 226 229 233 240 245 251 257 259 263 267 270 275 278 283 287 289 290 291 291 290 288 289 291 292 291 292 292 292 291 290 291 293 294
221 223 220 220 218 215 213 216 221 226 229 234 239 244 247 251 256 261 264 267 272 276 280 283 285 288 290 292 293 292 292 293 293 293 294 295 295 295 295 295 295 294 295
219 224 224 224 225 223 222 224 226 231 234 238 241 245 250 255 256 259 261 266 270 273 277 281 286 289 291 293 293 292 293 295 297 298 299 299 299 299 299 300 300 300 300
220 222 225 226 227 227 229 231 232 234 237 240 244 248 252 254 258 260 262 262 265 272 279 283 286 289 291 291 292 293 297 301 302 303 304 303 302 302 302 301 300 299 299
223 224 226 226 229 229 231 234 237 239 243 246 249 251 254 259 261 265 269 273 273 271 274 282 287 291 291 292 295 298 301 301 300 303 304 304 306 305 305 305 305 305 307
222 225 224 225 228 229 230 234 238 241 245 249 254 258 261 264 268 270 273 277 279 281 279 278 282 280 280 286 292 292 295 300 303 305 304 302 302 304 303 301 302 305 308
224 225 225 223 224 228 231 235 239 245 251 255 258 261 264 267 269 273 278 280 281 281 284 295 285 272 270 278 280 282 288 293 295 299 302 302 302 301 301 302 302 299 303
225 226 222 227 227 231 236 242 248 253 259 263 266 267 268 269 272 275 274 277 284 290 293 304 290 278 276 282 287 287 288 290 293 294 294 293 296 295 296 298 299 296 297
231 239 243 219 229 240 247 254 255 259 264 267 270 269 269 269 270 270 273 278 289 288 290 293 295 295 292 295 292 293 291 295 297 295 298 295 297 300 298 296 294 295 291
239 250 224 216 227 237 248 256 260 263 267 270 270 266 262 258 257 264 273 276 281 285 286 289 290 291 286 284 295 297 291 292 294 302 300 290 297 298 299 298 290 290 290
231 213 219 227 234 240 253 256 260 262 265 268 269 262 257 259 262 268 273 276 279 279 281 286 290 290 291 289 289 283 288 294 298 301 296 290 298 299 296 296 293 291 290
219 218 225 231 240 247 250 255 259 261 262 263 264 263 263 264 266 266 271 276 275 279 282 284 289 291 294 290 297 294 297 300 301 301 295 298 296 298 296 297 297 296 295
227 236 242 240 243 247 251 255 257 260 263 266 265 265 266 261 272 266 270 278 286 282 285 287 289 289 288 289 289 297 297 300 298 297 297 298 297 295 294 295 294 292 293
238 245 246 246 248 249 250 253 259 261 265 266 265 265 264 260 280 272 280 280 274 282 281 280 281 285 287 289 291 296 298 299 295 299 299 299 297 298 298 298 295 296 294
245 247 248 244 249 254 259 256 261 261 264 266 260 278 266 259 265 269 278 274 272 280 275 281 282 281 289 289 290 289 291 293 297 299 298 299 300 300 300 299 298 299 299
249 245 246 248 252 251 254 254 258 262 269 268 269 262 271 268 270 268 270 269 278 284 282 280 285 282 287 285 284 287 290 293 296 298 299 301 301 301 301 301 301 304 304
245 245 247 246 247 252 256 259 261 263 261 268 259 262 267 269 272 265 270 278 288 288 279 280 283 281 281 284 287 290 292 295 296 297 297 298 298 299 300 302 304 304 303
244 246 249 250 250 252 256 256 257 260 265 259 268 272 268 263 254 268 274 280 282 281 277 277 278 281 284 287 289 292 294 295 295 296 299 300 302 303 301 301 304 306 304